Location: Engelmannsreuth
(49.8125°N, 11.6497°E)
Time: 05:02:01
(UTC+00:00)

CZ-4C R/B - Pass Details

Date: 17 February 2020
Orbit: 641 x 1361 km, 63.4° (Epoch: 09 April)

Event Time Altitude Azimuth Distance (km) Brightness Sun altitude
Exits shadow 03:29:41 61° 346° (NNW) 970 2.4 -28.1°
Drops below altitude 10° 03:35:25 10° 41° (NE) 2,729 5.5 -27.2°
Sets 03:38:18 0° 44° (NE) 3,801 6.4 -26.8°
